Theta_e
351 346 347 344 343 341 336 336 336 330 328 335 339 349 352 354 356 356 352 351 350 348 347 347 348 349 351 352 353 354 354 354 354 353 352 352 353 354
350 349 349 347 345 344 345 342 343 332 326 335 339 347 350 353 354 352 352 352 348 347 345 344 344 345 346 348 348 349 350 351 351 350 350 349 349 350
347 347 346 348 347 344 347 347 345 346 340 339 343 348 347 349 351 350 353 349 348 344 344 343 341 342 343 343 343 344 345 346 346 347 348 348 348 348
349 348 346 350 346 347 345 344 344 346 339 335 341 341 342 345 348 351 353 353 348 350 343 342 340 340 339 338 338 338 338 339 340 341 342 344 346 346
349 347 346 348 344 346 347 347 344 347 344 342 340 343 343 345 345 349 351 351 356 350 342 339 338 338 337 335 334 332 329 329 330 331 333 334 337 341
349 349 349 348 345 347 346 344 346 344 343 342 340 340 342 344 343 340 342 343 343 353 352 347 345 340 336 332 332 331 327 325 324 324 325 325 327 330
350 351 350 351 349 348 349 346 347 344 343 341 339 340 339 339 339 341 340 342 344 346 343 346 345 341 333 328 331 328 325 323 321 320 319 318 319 321
347 347 350 350 348 343 342 344 347 343 340 339 337 336 336 340 341 341 339 337 334 347 342 340 341 327 323 320 323 322 320 319 318 317 316 315 315 315
346 348 348 352 348 349 342 338 338 340 341 342 340 338 338 341 342 343 340 341 339 343 339 332 336 323 321 320 321 320 318 317 315 314 314 313 313 313
349 349 348 347 346 349 348 344 343 343 338 339 340 341 343 346 347 346 342 340 339 337 334 328 330 325 319 318 321 320 318 316 314 314 314 313 310 308
349 350 351 350 343 338 347 344 347 346 333 334 335 335 331 333 337 335 333 330 325 325 328 326 326 325 322 317 317 320 317 315 314 315 315 314 310 311
348 351 340 348 336 332 345 342 339 341 339 333 330 328 328 328 329 330 332 327 324 322 326 321 320 321 320 325 321 314 313 314 313 313 314 314 310 317
345 346 348 331 327 323 329 345 343 344 343 340 336 334 330 330 327 331 332 328 324 322 324 323 318 317 317 317 320 317 315 314 313 313 313 309 309 310
344 345 343 328 324 321 325 333 328 335 341 342 339 334 332 333 331 331 329 330 328 327 326 324 321 320 318 316 317 316 315 314 313 312 312 310 308 309
347 340 332 318 316 318 324 326 327 335 337 337 337 339 339 334 332 328 327 328 327 327 331 328 327 325 323 320 316 316 314 314 314 312 313 312 311 310
325 325 325 325 325 329 325 324 332 335 335 334 333 335 334 333 328 328 325 326 325 326 332 329 330 328 322 322 319 317 316 315 315 314 314 315 315 314
330 330 331 331 330 329 329 327 327 329 330 331 331 331 331 329 328 328 328 327 326 324 326 329 333 331 329 326 321 320 319 316 317 317 315 314 317 317
334 333 332 332 332 332 330 330 330 331 331 330 330 330 327 326 326 327 328 327 326 324 322 327 328 326 326 328 331 324 321 318 319 318 317 315 315 318
332 335 336 335 334 334 334 333 332 332 331 331 330 330 328 328 327 327 328 329 326 326 324 322 327 326 320 316 320 323 321 319 320 317 318 317 315 317
334 338 336 337 336 336 336 335 332 331 330 329 329 329 330 328 327 328 330 328 327 323 322 322 323 327 320 317 317 319 316 319 318 316 317 319 320 319
331 340 338 338 337 337 336 334 333 332 329 328 329 329 328 328 328 328 326 319 321 321 322 323 323 325 325 321 316 316 318 312 316 318 316 315 312 313
337 340 339 335 336 334 333 332 331 329 330 328 328 329 328 327 325 325 325 323 321 322 321 322 322 319 319 317 315 315 315 318 316 314 317 319 312 308
339 339 336 334 333 333 333 333 333 332 332 332 333 329 328 327 327 326 327 326 323 319 317 317 322 324 322 320 317 317 316 317 318 317 317 316 314 315
Wind_Speed
5 5 3 3 3 2 1 2 4 1 3 3 3 5 1 2 6 6 6 12 14 15 15 16 17 17 17 17 16 16 16 16 16 16 16 17 18 18
4 6 5 3 5 3 3 3 1 4 2 3 2 0 3 2 6 5 6 11 16 16 17 17 17 16 17 17 17 17 18 18 18 18 17 17 18 18
6 5 5 5 3 3 1 1 1 1 1 3 2 1 2 4 3 3 4 5 5 15 17 15 14 16 18 18 18 18 18 18 18 18 18 18 19 18
7 6 6 3 5 5 3 3 2 2 3 4 2 1 3 4 4 5 6 5 5 6 12 12 13 16 17 16 13 15 16 16 16 15 15 15 18 19
7 7 7 6 5 4 4 3 2 1 0 2 2 1 2 1 2 2 2 2 2 2 7 7 10 13 13 13 15 12 7 6 10 11 11 12 14 15
8 7 7 7 7 7 6 6 4 2 2 1 2 3 1 2 1 1 4 1 3 3 2 4 7 8 4 5 8 8 9 10 9 10 10 9 11 13
7 7 7 8 11 8 5 6 5 4 3 3 3 2 2 2 3 2 2 3 3 3 3 2 2 4 5 9 8 13 13 11 8 4 4 5 8 9
10 7 7 10 10 11 13 11 9 6 5 4 3 4 4 4 3 3 3 2 3 1 1 3 2 3 3 3 8 11 10 11 9 7 9 8 9 10
9 8 7 7 9 7 10 8 8 10 8 6 7 6 5 6 4 3 4 3 3 3 3 2 1 3 2 3 8 8 10 8 8 9 8 9 10 10
12 11 10 8 7 7 7 7 7 7 8 6 8 8 6 4 4 4 4 3 1 0 1 2 1 2 2 2 5 7 8 8 10 11 11 10 11 10
12 11 11 9 10 12 7 7 6 6 2 4 5 5 6 8 6 3 2 2 2 1 2 3 1 3 3 3 4 7 8 7 7 6 9 11 10 8
7 10 16 13 13 14 10 8 7 6 5 4 3 2 5 4 6 4 4 3 3 0 2 3 0 2 1 2 3 4 3 5 6 2 1 7 8 3
8 8 8 15 13 13 13 8 8 6 6 5 4 4 4 4 3 3 3 3 2 2 4 3 2 0 1 2 2 3 3 2 3 3 4 1 3 3
10 8 7 15 17 16 12 10 10 7 3 4 4 4 4 4 4 4 4 3 3 4 5 4 3 4 3 1 3 1 2 3 3 2 2 3 3 1
10 8 8 13 12 7 7 10 9 4 4 3 4 6 5 5 6 4 3 3 2 2 4 5 3 2 3 3 3 3 2 3 3 2 2 3 2 2
10 6 8 10 6 4 5 5 5 5 5 4 4 2 3 8 5 4 3 3 1 4 6 7 7 5 2 4 3 2 4 3 3 4 3 2 3 4
8 5 5 4 5 5 4 5 4 4 5 4 3 5 5 4 4 4 3 3 4 3 3 4 7 6 4 4 3 4 4 4 4 4 2 3 4 5
6 6 6 7 8 8 7 6 6 8 7 5 4 6 6 5 5 4 3 5 6 5 3 3 4 1 2 5 13 7 3 3 4 5 4 3 4 4
4 6 8 9 8 8 8 7 7 7 6 5 5 7 6 5 5 4 5 6 4 4 4 4 4 4 4 4 5 7 5 3 2 3 5 5 4 5
6 6 8 9 9 8 7 7 5 6 5 5 5 5 5 4 4 4 5 6 6 3 4 4 3 7 7 7 4 4 13 6 5 4 4 3 5 5
9 10 9 9 8 8 8 6 7 7 6 5 5 5 5 4 3 3 3 5 4 3 3 4 5 8 3 4 2 3 5 14 9 6 4 4 4 2
10 9 8 7 9 8 6 6 7 6 7 6 5 5 5 5 4 5 4 4 4 4 4 4 3 2 2 4 5 4 4 4 8 16 10 10 6 4
9 8 6 5 6 7 6 6 6 7 8 7 6 5 5 4 5 5 4 5 4 4 5 3 2 4 4 5 6 5 7 7 4 3 5 16 17 15
Wind_Direction
230 243 232 271 292 270 284 188 182 244 299 309 45 260 115 155 169 182 184 206 209 213 211 214 216 220 222 226 228 230 232 233 233 233 233 233 236 238
206 213 225 240 266 305 346 349 141 189 217 231 282 251 103 132 217 186 207 207 214 216 220 219 220 224 225 226 228 230 231 232 233 233 233 233 234 235
228 192 201 202 226 257 163 333 350 340 171 298 185 98 177 183 244 270 220 207 203 222 229 227 222 222 227 228 230 233 235 237 238 238 239 238 236 238
217 205 223 229 228 245 230 238 230 244 165 248 277 288 204 250 228 231 247 222 214 220 232 237 234 233 237 234 235 242 240 238 239 242 247 247 243 244
208 209 222 211 223 220 216 241 238 273 213 175 275 294 290 3 299 308 342 314 2 258 236 258 259 259 247 237 236 251 278 267 246 245 249 249 251 253
213 209 209 209 214 222 224 227 233 249 253 218 251 270 240 276 86 44 322 358 286 328 269 245 243 255 327 293 262 248 241 247 251 242 240 250 261 262
218 214 210 209 207 212 204 225 219 226 220 215 237 228 241 278 221 231 246 264 289 235 265 325 322 68 31 42 49 51 57 53 45 15 346 322 285 274
218 219 223 217 215 219 220 214 197 198 209 191 215 217 232 210 213 197 224 277 291 4 68 289 17 59 28 53 72 66 66 73 57 32 27 -0 341 324
207 214 222 226 210 225 227 212 223 222 217 194 227 218 226 206 201 203 213 205 226 293 53 293 47 116 128 77 92 98 81 66 54 38 17 357 333 309
207 203 208 214 209 191 189 194 208 208 214 217 224 239 226 201 218 195 184 208 277 223 99 199 295 117 129 182 157 141 124 101 70 47 25 357 334 322
206 202 205 208 214 204 200 207 216 219 123 188 200 189 162 169 174 144 197 144 275 221 5 138 286 120 178 212 211 186 147 122 102 50 28 19 359 347
198 199 203 204 200 204 203 195 211 222 178 175 184 193 192 200 183 182 159 166 188 344 244 117 44 101 268 238 176 190 181 179 175 169 105 26 13 355
210 215 217 208 209 195 203 193 202 169 210 194 191 201 194 196 211 189 177 146 170 188 224 121 151 56 178 271 247 208 178 215 214 262 275 264 105 56
204 205 205 206 211 204 186 191 166 157 184 186 185 202 192 187 204 186 184 163 176 175 183 162 177 165 182 272 250 234 233 231 195 244 245 214 276 2
206 172 191 200 177 158 193 177 164 178 186 195 201 208 201 179 142 152 182 167 197 213 187 199 198 215 188 203 240 221 183 250 217 236 254 222 238 212
133 139 148 149 177 176 146 183 182 178 183 192 214 215 151 149 156 166 165 158 181 273 239 216 214 201 229 218 191 240 209 218 206 228 235 254 222 218
144 126 148 158 175 179 186 182 189 189 196 207 172 175 170 147 162 178 169 154 200 216 250 229 227 219 215 216 281 234 226 224 224 217 193 272 259 209
175 170 195 178 183 187 185 180 200 206 205 197 186 176 178 167 176 182 175 187 205 219 217 217 181 167 314 279 203 241 208 221 225 209 209 213 273 248
248 193 199 191 186 185 185 183 197 206 189 190 182 180 176 175 171 194 200 206 219 239 233 189 177 179 195 231 281 214 186 218 213 214 216 210 229 249
234 204 207 192 181 183 188 190 179 186 185 185 172 171 172 168 173 209 202 200 212 232 267 268 207 200 185 210 202 252 204 208 185 217 226 227 236 297
210 211 206 202 184 186 194 181 180 181 178 175 179 179 184 171 176 172 184 204 189 202 254 250 227 203 169 101 55 281 272 228 222 199 217 205 236 255
202 200 193 186 179 185 181 174 171 163 178 177 176 175 166 157 174 197 209 224 232 231 231 253 265 167 145 170 215 231 264 278 235 235 232 208 177 227
186 189 182 173 181 180 171 172 167 176 186 184 182 166 166 173 203 191 209 221 237 238 221 258 248 179 216 194 208 240 247 254 229 261 269 233 235 262